Weather History for Warsaw, IN

Change the Weather History Date:

Tuesday, February 25, 2014

  Actual Average Record
Temperature  
Mean Temperature 19 °F -  
Max Temperature 24 °F 38 °F 63 °F (1976)
Min Temperature 12 °F 21 °F -2 °F (1950)
Degree Days  
Heating Degree Days 46    
Moisture  
Dew Point 12 °F    
Average Humidity 72    
Maximum Humidity 86    
Minimum Humidity 63    
Precipitation  
Precipitation 0.00 in - - ()
Sea Level Pressure  
Sea Level Pressure 30.14 in    
Wind  
Wind Speed 10 mph (West)    
Max Wind Speed 18 mph    
Max Gust Speed 24 mph    
Visibility 10 miles    
Events Snow    
Averages and records for this station are not official NWS values.
T = Trace of Precipitation, MM = Missing Value Source: NWS Daily Summary

Daily Weather History Graph

Daily Weather History Graph

Search for Another Location

Airport:

Trip Planner

Search our weather history database for the weather conditions in past years. The results will help you decide how hot, cold, wet, or windy it might be!

Date:

Astronomy

Feb. 25, 2014 Rise Set
Actual Time 7:23 AM EST 6:29 PM EST
Civil Twilight 6:56 AM EST 6:57 PM EST
Nautical Twilight 6:24 AM EST 7:29 PM EST
Astronomical Twilight 5:52 AM EST 8:01 PM EST
Moon 4:19 AM EST (2/25) 2:32 PM EST (2/25)
Length of Visible Light 12h 01m
Length of Day
11h 05m
Waning Crescent, 18% of the Moon is Illuminated
Feb 25
Waning Crescent
Mar 1
New
Mar 8
First Quarter
Mar 16
Full
Mar 23
Last Quarter

Hourly Weather History & Observations

Time (EST) Temp. Windchill Dew Point Humidity Pressure Visibility Wind Dir Wind Speed Gust Speed Precip Events Conditions
12:20 AM 19.4 °F 9.5 °F 12.2 °F 74% 30.18 in 10.0 mi West 8.1 mph - N/A   Mostly Cloudy
12:35 AM 19.4 °F 8.6 °F 12.2 °F 74% 30.17 in 10.0 mi West 9.2 mph - N/A   Mostly Cloudy
12:55 AM 19.4 °F 8.6 °F 12.2 °F 74% 30.17 in 10.0 mi West 9.2 mph - N/A   Overcast
1:15 AM 19.4 °F 9.5 °F 12.2 °F 74% 30.17 in 10.0 mi West 8.1 mph - N/A   Overcast
1:35 AM 19.4 °F 8.6 °F 12.2 °F 74% 30.18 in 10.0 mi West 9.2 mph - N/A   Overcast
1:55 AM 19.4 °F 8.6 °F 12.2 °F 74% 30.18 in 10.0 mi West 9.2 mph - N/A   Overcast
2:15 AM 19.4 °F 9.5 °F 12.2 °F 74% 30.18 in 10.0 mi West 8.1 mph - N/A   Overcast
2:35 AM 19.4 °F 7.9 °F 12.2 °F 74% 30.18 in 10.0 mi West 10.4 mph - N/A   Overcast
3:00 AM 19.4 °F 7.9 °F 14.0 °F 80% 30.18 in 4.0 mi WNW 10.4 mph - N/A Snow Light Snow
3:15 AM 19.4 °F 9.5 °F 14.0 °F 80% 30.17 in 2.5 mi West 8.1 mph - N/A Snow Light Snow
4:55 AM 19.4 °F 10.4 °F 14.0 °F 80% 30.16 in 10.0 mi West 6.9 mph - N/A   Overcast
5:15 AM 17.6 °F 9.3 °F 14.0 °F 86% 30.16 in 10.0 mi West 5.8 mph - N/A   Scattered Clouds
5:35 AM 17.6 °F 8.2 °F 12.2 °F 79% 30.16 in 10.0 mi West 6.9 mph - N/A   Scattered Clouds
5:55 AM 17.6 °F 8.2 °F 12.2 °F 79% 30.16 in 10.0 mi West 6.9 mph - N/A   Clear
6:15 AM 17.6 °F 7.3 °F 12.2 °F 79% 30.16 in 10.0 mi West 8.1 mph - N/A   Clear
6:35 AM 17.6 °F 8.2 °F 12.2 °F 79% 30.16 in 10.0 mi West 6.9 mph - N/A   Clear
6:55 AM 17.6 °F 8.2 °F 12.2 °F 79% 30.17 in 10.0 mi West 6.9 mph - N/A   Clear
7:15 AM 17.6 °F 8.2 °F 12.2 °F 79% 30.17 in 10.0 mi West 6.9 mph - N/A   Mostly Cloudy
7:35 AM 17.6 °F 6.4 °F 12.2 °F 79% 30.17 in 10.0 mi West 9.2 mph - N/A   Mostly Cloudy
7:55 AM 17.6 °F 6.4 °F 12.2 °F 79% 30.18 in 10.0 mi West 9.2 mph - N/A   Mostly Cloudy
8:15 AM 17.6 °F 5.0 °F 12.2 °F 79% 30.18 in 10.0 mi West 11.5 mph - N/A Snow Light Snow
8:35 AM 17.6 °F 4.3 °F 12.2 °F 79% 30.19 in 10.0 mi West 12.7 mph - N/A Snow Light Snow
8:55 AM 19.4 °F 8.6 °F 12.2 °F 74% 30.18 in 10.0 mi West 9.2 mph - N/A Snow Light Snow
9:15 AM 19.4 °F 8.6 °F 12.2 °F 74% 30.19 in 10.0 mi West 9.2 mph - N/A   Mostly Cloudy
9:35 AM 21.2 °F 9.5 °F 12.2 °F 68% 30.19 in 10.0 mi West 11.5 mph - N/A   Mostly Cloudy
9:55 AM 21.2 °F 10.1 °F 14.0 °F 74% 30.18 in 10.0 mi West 10.4 mph - N/A   Overcast
10:15 AM 21.2 °F 10.1 °F 14.0 °F 74% 30.18 in 10.0 mi West 10.4 mph - N/A   Mostly Cloudy
10:35 AM 21.2 °F 10.1 °F 14.0 °F 74% 30.18 in 10.0 mi West 10.4 mph - N/A   Scattered Clouds
10:55 AM 21.2 °F 10.1 °F 12.2 °F 68% 30.18 in 10.0 mi West 10.4 mph 16.1 mph N/A   Mostly Cloudy
11:15 AM 23.0 °F 11.7 °F 14.0 °F 68% 30.18 in 10.0 mi West 11.5 mph - N/A   Overcast
11:35 AM 23.0 °F 12.4 °F 14.0 °F 68% 30.18 in 10.0 mi West 10.4 mph 17.3 mph N/A   Overcast
11:55 AM 23.0 °F 13.1 °F 12.2 °F 63% 30.18 in 7.0 mi WNW 9.2 mph - N/A Snow Light Snow
12:35 PM 23.0 °F 12.4 °F 14.0 °F 68% 30.17 in 10.0 mi West 10.4 mph - N/A Snow Light Snow
12:55 PM 23.0 °F 13.9 °F 14.0 °F 68% 30.16 in 10.0 mi West 8.1 mph - N/A Snow Light Snow
1:15 PM 23.0 °F 12.4 °F 12.2 °F 63% 30.15 in 10.0 mi WNW 10.4 mph - N/A Snow Light Snow
1:35 PM 23.0 °F 11.1 °F 14.0 °F 68% 30.15 in 10.0 mi West 12.7 mph - N/A Snow Light Snow
1:55 PM 24.8 °F 13.4 °F 14.0 °F 64% 30.14 in 10.0 mi WNW 12.7 mph 18.4 mph N/A Snow Light Snow
2:15 PM 23.0 °F 11.7 °F 14.0 °F 68% 30.13 in 10.0 mi WNW 11.5 mph - N/A Snow Light Snow
2:35 PM 24.8 °F 13.4 °F 14.0 °F 64% 30.13 in 10.0 mi WNW 12.7 mph - N/A Snow Light Snow
2:55 PM 23.0 °F 10.1 °F 14.0 °F 68% 30.13 in 10.0 mi West 15.0 mph - N/A Snow Light Snow
3:15 PM 24.8 °F 15.3 °F 14.0 °F 64% 30.12 in 7.0 mi WNW 9.2 mph - N/A Snow Light Snow
3:35 PM 23.0 °F 11.1 °F 14.0 °F 68% 30.12 in 10.0 mi West 12.7 mph - N/A   Overcast
3:55 PM 23.0 °F 11.1 °F 14.0 °F 68% 30.11 in 10.0 mi West 12.7 mph - N/A Snow Light Snow
4:15 PM 24.8 °F 13.4 °F 14.0 °F 64% 30.11 in 10.0 mi West 12.7 mph - N/A   Mostly Cloudy
4:35 PM 23.0 °F 11.1 °F 14.0 °F 68% 30.10 in 10.0 mi West 12.7 mph 18.4 mph N/A   Overcast
4:55 PM 23.0 °F 10.1 °F 12.2 °F 63% 30.10 in 10.0 mi West 15.0 mph - N/A   Mostly Cloudy
5:15 PM 23.0 °F 11.1 °F 12.2 °F 63% 30.09 in 10.0 mi West 12.7 mph 20.7 mph N/A   Mostly Cloudy
5:35 PM 23.0 °F 10.6 °F 14.0 °F 68% 30.08 in 10.0 mi West 13.8 mph - N/A   Scattered Clouds
6:00 PM 23.0 °F 11.7 °F 12.2 °F 63% 30.08 in 10.0 mi West 11.5 mph 21.9 mph N/A   Mostly Cloudy
6:15 PM 21.2 °F 8.9 °F 12.2 °F 68% 30.08 in 10.0 mi West 12.7 mph 17.3 mph N/A   Mostly Cloudy
6:35 PM 21.2 °F 7.8 °F 12.2 °F 68% 30.08 in 10.0 mi West 15.0 mph 21.9 mph N/A   Scattered Clouds
6:55 PM 21.2 °F 8.3 °F 12.2 °F 68% 30.07 in 10.0 mi West 13.8 mph 21.9 mph N/A   Scattered Clouds
7:15 PM 19.4 °F 4.1 °F 10.4 °F 68% 30.07 in 10.0 mi West 18.4 mph 24.2 mph N/A   Clear
7:35 PM 19.4 °F 6.0 °F 10.4 °F 68% 30.08 in 10.0 mi West 13.8 mph 19.6 mph N/A   Clear
7:55 PM 17.6 °F 2.7 °F 10.4 °F 73% 30.08 in 10.0 mi West 16.1 mph 20.7 mph N/A   Clear
8:15 PM 17.6 °F 4.3 °F 10.4 °F 73% 30.08 in 10.0 mi West 12.7 mph - N/A   Scattered Clouds
8:35 PM 17.6 °F 2.7 °F 10.4 °F 73% 30.08 in 10.0 mi West 16.1 mph - N/A   Scattered Clouds
8:55 PM 17.6 °F 1.7 °F 10.4 °F 73% 30.08 in 10.0 mi West 18.4 mph 21.9 mph N/A   Clear
9:15 PM 17.6 °F 3.2 °F 8.6 °F 68% 30.09 in 10.0 mi West 15.0 mph 24.2 mph N/A   Clear
9:35 PM 15.8 °F -0.2 °F 8.6 °F 73% 30.09 in 10.0 mi West 17.3 mph 21.9 mph N/A   Clear
9:55 PM 15.8 °F 0.9 °F 8.6 °F 73% 30.10 in 10.0 mi West 15.0 mph 20.7 mph N/A   Clear
10:15 PM 14.0 °F -2.0 °F 8.6 °F 79% 30.10 in 10.0 mi West 16.1 mph - N/A   Clear
10:35 PM 14.0 °F -2.0 °F 8.6 °F 79% 30.10 in 10.0 mi West 16.1 mph 23.0 mph N/A   Clear
10:55 PM 14.0 °F -2.5 °F 6.8 °F 73% 30.10 in 10.0 mi West 17.3 mph - N/A   Scattered Clouds
11:15 PM 14.0 °F -1.4 °F 6.8 °F 73% 30.10 in 10.0 mi West 15.0 mph 19.6 mph N/A   Scattered Clouds
11:35 PM 14.0 °F -2.0 °F 6.8 °F 73% 30.10 in 10.0 mi West 16.1 mph - N/A   Mostly Cloudy
11:55 PM 12.2 °F -1.8 °F 6.8 °F 79% 30.10 in 10.0 mi West 11.5 mph - N/A   Mostly Cloudy